Home > Weather > Tsingtao > Past weeks

Flag for China Weather for the Past 2 Weeks in Tsingtao, Shandong, China

Now
27 °F

Light snow. Passing clouds.


Feels Like: 20 °F
Forecast: 24 / 30 °F
Wind: 6 mph from Northwest

Location: Qingdao Airport

Current Time: Feb 14, 2016 at 7:49:53 AM

Latest Report: Feb 14, 2016 at 6:00 AM


Visibility: N/A

Pressure: 30.24 "Hg

Humidity: 69%

Dew point: 18 °F

Location of TsingtaoLocation

Historic Weather in Tsingtao — Graph

°F

Tsingtao Temperature Yesterday

Maximum temperature yesterday: 46 °F (at 1:00 AM)
Minimum temperature yesterday: 30 °F (at 6:00 PM)
Average temperature yesterday: 38 °F

High & Low Weather Summary for the Past Weeks

 TemperatureHumidityPressure
High57 °F (Feb 8, 1:00 PM)100% (Feb 12, 7:00 AM)30.63 "Hg (Feb 12, 7:00 AM)
Low12 °F (Feb 1, 7:00 AM)11% (Feb 2, 3:00 PM)29.77 "Hg (Feb 13, 3:00 AM)
Average34 °F54%30.27 "Hg
* Reported Jan 30 6:00 AM — Feb 14 6:00 AM, Tsingtao, Weather by CustomWeather, © 2016

Note: Actual official high and low records may vary slightly from our data, if they occured in-between our weather recording intervals... More about our weather records

Advertising

Tsingtao Weather History for the Previous 24 Hours

 ConditionsComfort  
Time TempWeatherWind HumidityBarometerVisibility
6:00 AM
Sun, Feb 14
27 °FLight snow. Passing clouds.6 mph69%30.24 "HgN/A
5:00 AM27 °FClear.8 mph59%30.24 "Hg10 mi
4:00 AM27 °FClear.15 mph59%30.24 "Hg10 mi
3:00 AM27 °FClear.15 mph59%30.24 "Hg10 mi
2:00 AM28 °FClear.20 mph55%30.24 "Hg10 mi
1:00 AM30 °FClear.17 mph55%30.21 "Hg10 mi
12:00 AM30 °FClear.17 mph59%30.21 "Hg10 mi
11:00 PM
Sat, Feb 13
30 °FClear.20 mph51%30.18 "Hg10 mi
10:00 PM30 °FPassing clouds.20 mph69%30.18 "HgN/A
9:00 PM30 °FPassing clouds.26 mph64%30.18 "HgN/A
8:00 PM30 °FOvercast.31 mph75%30.12 "HgN/A
7:00 PM30 °FOvercast.31 mph80%30.12 "HgN/A
6:00 PM30 °FOvercast.29 mph80%30.07 "HgN/A
5:00 PM32 °FOvercast.29 mph80%29.98 "HgN/A
4:00 PM32 °FLight snow. Mostly cloudy.26 mph87%29.95 "HgN/A
3:00 PM32 °FLight snow. More clouds than sun.22 mph93%29.95 "HgN/A
2:00 PM34 °FLight rain. More clouds than sun.22 mph93%29.89 "Hg5 mi
1:00 PM36 °FLight rain. More clouds than sun.17 mph93%29.89 "Hg5 mi
12:00 PM36 °FLight rain. More clouds than sun.17 mph93%29.86 "HgN/A
11:00 AM37 °FLight rain. Fog.20 mph87%29.86 "Hg3 mi
10:00 AM39 °FLight rain. More clouds than sun.22 mph93%29.83 "Hg4 mi
9:00 AM45 °FLight rain. More clouds than sun.17 mph93%29.80 "Hg4 mi
8:00 AM45 °FLight rain. More clouds than sun.17 mph93%29.77 "Hg4 mi
7:00 AM46 °FLight rain. More clouds than sun.15 mph93%29.80 "Hg5 mi
Weather by CustomWeather, © 2016

See weather overviewHow to use our weather pages